CYGFM07 (41890 NORAD) Tracking and Keplerian Element Data

This shows tracking and keplerian element data for the satellite.

Feedback or suggestion? Click here.




ElementValue
Catalog41890
NameCYGFM07
Epoch Orbit26462
Epoch Day268.6666579
Epoch Year2021
RAAN39.4396
Inclination34.9532
Eccentricity0.0014183
Argument of Perigee256.5124
Mean Anonmoly103.4007
Mean Motion15.15657785
Decay Rate1.185E-05
L11 41890U 16078G 21268.66665790 .00001185 00000-0 62408-4 0 9997
L22 41890 34.9532 39.4396 0014183 256.5124 103.4007 15.15657785264621

Live tracking and technical data element details for CYGFM07 (NORAD 41890). CYGFM07 can be tracked NOW for your location showing map with azimuth and elevation plus other details from your city location.

Track the satellite on the map from your city or location and see movement details for azimuth, elevation, latitude, longitude, range, height, and movement on the map or in text.







IsCatalogInMostPopularTable: catalog: 41890, numindb: 548
Update: records affected: 1



GetName: 41890 CYGFM07

Hit Count: updated at: Mon, 27 Sep 2021 00:16:25 GMT